User: anonymous   Login
Location: Kailua
(21.4020°N, 157.7390°W)
Time: 07:01:40
(UTC-10:00)
Language:

Cosmos 2297 Rocket - Orbit

View from above orbital plane
View from above orbital plane
View from above satellite
View from above satellite

Ground track
Ground track

The orbit data is extracted from the following two-line orbital elements,

1 23405U 94077B   16181.56965804 -.00000174  00000-0 -65170-4 0  9998
2 23405  70.9820 236.7687 0002030 192.7568 167.3504 14.15180580115628
Epoch (UTC): 29 June 2016 13:40:18
Eccentricity: 0.0002030
inclination: 70.9820°
perigee height: 840 km
apogee height: 843 km
right ascension of ascending node: 236.7687°
argument of perigee: 192.7568°
revolutions per day: 14.15180580
mean anomaly at epoch: 167.3504°
orbit number at epoch: 11562

The dashed part of the orbit path shows where the satellite is in the earth's shadow,  

DLR